• In Hungary
  • List of Countries
  • For 7 days
  • Water Temperature
  • Satellite Maps
  • Weather Map
  • News
  • Weather Widgets
  • user-avatar
    Login

    Hourly Weather Ochotnica

    Today, 20 February, Tuesday

    Time Temperature Precipitation Wind Pressure Humidity
    00:00 -6°C° 0 mm 1 mps 714 mmHg 86%
    01:00 -6°C° 0 mm 1 mps 714 mmHg 84%
    02:00 -6°C° 0 mm 1 mps 714 mmHg 83%
    03:00 -6°C° 0 mm 1 mps 714 mmHg 82%
    04:00 -6°C° 0 mm 1 mps 713 mmHg 80%
    05:00 -6°C° 0 mm 1 mps 713 mmHg 80%
    06:00 -6°C° 0 mm 1 mps 713 mmHg 80%
    07:00 -6°C° 0 mm 1 mps 713 mmHg 80%
    08:00 -3°C° 0 mm 1 mps 713 mmHg 77%
    09:00 -2°C° 0 mm 1 mps 713 mmHg 73%
    10:00 0°C° 0 mm 1 mps 713 mmHg 70%
    11:00 -1°C° 0 mm 2 mps 713 mmHg 70%
    12:00 -1°C° 0 mm 2 mps 713 mmHg 69%
    13:00 +1°C° 0 mm 2 mps 713 mmHg 68%
    14:00 -1°C° 0 mm 2 mps 713 mmHg 72%
    15:00 -2°C° 0 mm 2 mps 712 mmHg 76%
    16:00 -2°C° 0 mm 2 mps 712 mmHg 79%
    17:00 -3°C° 0 mm 2 mps 712 mmHg 83%
    18:00 -4°C° 0 mm 2 mps 712 mmHg 86%
    19:00 -4°C° 0 mm 2 mps 712 mmHg 89%
    20:00 -5°C° 0 mm 2 mps 712 mmHg 89%
    21:00 -5°C° 0 mm 2 mps 712 mmHg 89%
    22:00 -5°C° 0 mm 2 mps 713 mmHg 89%
    23:00 -5°C° 0 mm 2 mps 713 mmHg 90%

    Tomorrow, 21 February, Wednesday

    Time Temperature Precipitation Wind Pressure Humidity
    00:00 -5°C° 0 mm 2 mps 713 mmHg 90%
    01:00 -5°C° 0 mm 2 mps 713 mmHg 91%
    02:00 -5°C° 0 mm 2 mps 713 mmHg 91%
    03:00 -6°C° 0 mm 2 mps 712 mmHg 91%
    04:00 -6°C° 0 mm 2 mps 712 mmHg 91%
    05:00 -6°C° 0 mm 2 mps 712 mmHg 91%
    06:00 -6°C° 0 mm 2 mps 712 mmHg 91%
    07:00 -6°C° 0 mm 2 mps 713 mmHg 91%
    08:00 -5°C° 0 mm 2 mps 713 mmHg 88%
    09:00 -5°C° 0 mm 2 mps 713 mmHg 85%
    10:00 -4°C° 0 mm 2 mps 713 mmHg 82%
    11:00 -3°C° 0 mm 2 mps 713 mmHg 81%
    12:00 -3°C° 0 mm 2 mps 713 mmHg 80%
    13:00 -2°C° 0 mm 2 mps 713 mmHg 79%
    14:00 -3°C° 0 mm 2 mps 713 mmHg 80%
    15:00 -3°C° 0 mm 2 mps 713 mmHg 81%
    16:00 -4°C° 0 mm 2 mps 713 mmHg 82%
    17:00 -4°C° 0 mm 2 mps 713 mmHg 84%
    18:00 -5°C° 0 mm 2 mps 713 mmHg 86%
    19:00 -5°C° 0 mm 2 mps 713 mmHg 88%
    20:00 -5°C° 0 mm 2 mps 714 mmHg 88%
    21:00 -6°C° 0 mm 2 mps 714 mmHg 88%
    22:00 -6°C° 0 mm 2 mps 714 mmHg 89%
    23:00 -6°C° 0 mm 2 mps 714 mmHg 89%

    Day after tomorrow, 22 February, Thursday

    Time Temperature Precipitation Wind Pressure Humidity
    00:00 -6°C° 0 mm 2 mps 714 mmHg 90%
    01:00 -6°C° 0 mm 2 mps 714 mmHg 91%
    02:00 -6°C° 0 mm 2 mps 714 mmHg 92%
    03:00 -6°C° 0 mm 2 mps 714 mmHg 92%
    04:00 -6°C° 0 mm 2 mps 713 mmHg 92%
    05:00 -6°C° 0 mm 2 mps 714 mmHg 92%
    06:00 -7°C° 0 mm 3 mps 714 mmHg 91%
    07:00 -7°C° 0 mm 3 mps 714 mmHg 91%
    08:00 -6°C° 0 mm 3 mps 714 mmHg 88%
    09:00 -6°C° 0 mm 3 mps 714 mmHg 85%
    10:00 -5°C° 0 mm 3 mps 714 mmHg 82%
    11:00 -5°C° 0 mm 3 mps 714 mmHg 81%
    12:00 -4°C° 0 mm 3 mps 714 mmHg 79%
    13:00 -4°C° 0 mm 3 mps 714 mmHg 78%
    14:00 -4°C° 0 mm 3 mps 714 mmHg 79%
    15:00 -4°C° 0 mm 3 mps 713 mmHg 80%
    16:00 -5°C° 0 mm 3 mps 713 mmHg 81%
    17:00 -5°C° 0 mm 3 mps 713 mmHg 83%
    18:00 -6°C° 0 mm 3 mps 713 mmHg 85%
    19:00 -6°C° 0 mm 3 mps 714 mmHg 87%
    20:00 -6°C° 0 mm 3 mps 714 mmHg 88%
    21:00 -6°C° 0 mm 3 mps 714 mmHg 88%
    22:00 -6°C° 0 mm 3 mps 714 mmHg 89%
    23:00 -6°C° 0 mm 3 mps 714 mmHg 89%

    23 February, Friday

    Time Temperature Precipitation Wind Pressure Humidity
    00:00 -6°C° 0 mm 3 mps 713 mmHg 89%
    01:00 -7°C° 0 mm 3 mps 713 mmHg 90%
    02:00 -7°C° 0 mm 3 mps 713 mmHg 89%
    03:00 -7°C° 0 mm 3 mps 713 mmHg 89%
    04:00 -7°C° 0 mm 3 mps 713 mmHg 89%
    05:00 -7°C° 0.1 mm 3 mps 713 mmHg 89%
    06:00 -7°C° 0.1 mm 3 mps 713 mmHg 89%
    07:00 -7°C° 0.1 mm 3 mps 713 mmHg 89%
    08:00 -7°C° 0.1 mm 3 mps 713 mmHg 86%
    09:00 -6°C° 0.1 mm 3 mps 714 mmHg 84%
    10:00 -6°C° 0.1 mm 3 mps 714 mmHg 81%
    11:00 -5°C° 0 mm 3 mps 714 mmHg 79%
    12:00 -5°C° 0 mm 3 mps 714 mmHg 78%
    13:00 -5°C° 0 mm 3 mps 714 mmHg 76%
    14:00 -5°C° 0 mm 3 mps 714 mmHg 76%
    15:00 -5°C° 0 mm 3 mps 714 mmHg 77%
    16:00 -5°C° 0 mm 3 mps 715 mmHg 77%
    17:00 -6°C° 0 mm 3 mps 715 mmHg 78%
    18:00 -7°C° 0 mm 3 mps 715 mmHg 80%
    19:00 -8°C° 0 mm 3 mps 716 mmHg 81%
    20:00 -8°C° 0 mm 3 mps 716 mmHg 81%
    21:00 -9°C° 0 mm 3 mps 716 mmHg 80%
    22:00 -10°C° 0 mm 3 mps 716 mmHg 80%
    23:00 -10°C° 0 mm 3 mps 716 mmHg 79%

    24 February, Saturday

    Time Temperature Precipitation Wind Pressure Humidity
    00:00 -10°C° 0 mm 2 mps 716 mmHg 78%
    01:00 -10°C° 0 mm 2 mps 716 mmHg 77%
    02:00 -12°C° 0 mm 2 mps 716 mmHg 77%
    03:00 -12°C° 0 mm 2 mps 716 mmHg 77%
    04:00 -12°C° 0 mm 2 mps 716 mmHg 77%
    05:00 -12°C° 0 mm 2 mps 716 mmHg 77%
    06:00 -12°C° 0 mm 2 mps 716 mmHg 78%
    07:00 -12°C° 0 mm 2 mps 716 mmHg 78%
    08:00 -12°C° 0.1 mm 3 mps 717 mmHg 75%
    09:00 -11°C° 0.1 mm 4 mps 717 mmHg 71%
    10:00 -12°C° 0.1 mm 5 mps 717 mmHg 67%
    11:00 -12°C° 0 mm 5 mps 717 mmHg 65%
    12:00 -11°C° 0 mm 5 mps 717 mmHg 63%
    13:00 -11°C° 0 mm 5 mps 717 mmHg 60%
    14:00 -12°C° 0 mm 5 mps 717 mmHg 61%
    15:00 -11°C° 0 mm 4 mps 717 mmHg 62%
    16:00 -11°C° 0 mm 4 mps 717 mmHg 63%
    17:00 -12°C° 0 mm 4 mps 717 mmHg 66%
    18:00 -14°C° 0 mm 4 mps 717 mmHg 69%
    19:00 -14°C° 0 mm 4 mps 717 mmHg 72%
    20:00 -15°C° 0 mm 4 mps 717 mmHg 74%
    21:00 -14°C° 0 mm 3 mps 717 mmHg 76%
    22:00 -15°C° 0 mm 3 mps 717 mmHg 78%
    23:00 -15°C° 0 mm 3 mps 717 mmHg 79%

    25 February, Sunday

    Time Temperature Precipitation Wind Pressure Humidity
    00:00 -15°C° 0 mm 3 mps 716 mmHg 80%
    01:00 -15°C° 0 mm 3 mps 716 mmHg 81%
    02:00 -15°C° 0.1 mm 3 mps 716 mmHg 82%
    03:00 -16°C° 0.1 mm 4 mps 716 mmHg 82%
    04:00 -16°C° 0.1 mm 4 mps 716 mmHg 82%
    05:00 -16°C° 0.1 mm 4 mps 716 mmHg 82%
    06:00 -16°C° 0.1 mm 4 mps 716 mmHg 83%
    07:00 -16°C° 0.1 mm 4 mps 716 mmHg 83%
    08:00 -16°C° 0.1 mm 4 mps 716 mmHg 80%
    09:00 -15°C° 0.1 mm 4 mps 716 mmHg 76%
    10:00 -14°C° 0.1 mm 5 mps 716 mmHg 73%
    11:00 -14°C° 0 mm 5 mps 716 mmHg 70%
    12:00 -13°C° 0 mm 5 mps 716 mmHg 68%
    13:00 -13°C° 0 mm 5 mps 715 mmHg 65%
    14:00 -13°C° 0 mm 5 mps 715 mmHg 65%
    15:00 -13°C° 0 mm 5 mps 715 mmHg 65%
    16:00 -14°C° 0 mm 5 mps 715 mmHg 65%
    17:00 -14°C° 0 mm 4 mps 715 mmHg 69%
    18:00 -15°C° 0 mm 4 mps 715 mmHg 73%
    19:00 -15°C° 0 mm 3 mps 715 mmHg 77%
    20:00 -15°C° 0 mm 3 mps 715 mmHg 78%
    21:00 -16°C° 0 mm 3 mps 716 mmHg 79%
    22:00 -16°C° 0 mm 3 mps 716 mmHg 80%
    23:00 -16°C° 0 mm 3 mps 715 mmHg 81%
    Show more